Location: Freemans Gardens
(41.6414°N, 83.6077°W)
Time: 03:27:10
(UTC+00:00)

GPS 2-04 Rocket1 - Pass Details

Date: 29 October 2020
Orbit: 418 x 546 km, 35.6° (Epoch: 26 November)

Event Time Altitude Azimuth Distance (km) Brightness Sun altitude
Rises 23:31:42 0° 233° (SW) 2,600 7.4 -11.7°
Reaches altitude 10° 23:34:09 10° 219° (SW) 1,739 6.1 -12.1°
Maximum altitude 23:37:27 25° 164° (SSE) 1,098 4.3 -12.7°
Enters shadow 23:39:48 15° 119° (ESE) 1,471 4.5 -13.2°
